Retour au catalogue

SUPERVIEW NEO-2 01

ActifScienceSSO
NORAD 53128·PAYLOAD·🇨🇳 China

Lancé Jul 15, 2022 depuis Taiyuan Satellite Launch Center

Loading…

Prochains Passages (prochaines 24 heures)

TLE

FraisSource: Space-Track

Époque: Sep 14, 2026, 23:03 UTC

1 53128U 22082A   26257.96047478  .00003959  00000-0  16390-3 0  9998
2 53128  97.3936 266.7523 0001718  87.2469 272.8965 15.24509791231886

Suivez SUPERVIEW NEO-2 01 en temps réel avec AllMySat

Download on the App Store